Location: Unspecified
(52.1971°N, 0.0000°E)
Time: 20:57:12
(UTC+00:00)

YUBILEINY - Pass Details

Date: 19 December 2019
Orbit: 1478 x 1509 km, 82.5° (Epoch: 24 January)

Event Time Altitude Azimuth Distance (km) Brightness Sun altitude
Exits shadow 00:06:19 11° 348° (NNW) 3,546 ? -61.1°
Drops below altitude 10° 00:06:57 10° 352° (N) 3,630 ? -61.1°
Sets 00:11:59 0° 16° (NNE) 4,613 ? -61.1°
